Other Public Products
Issued by NWS Charleston, SC

Current Version | Previous Version | Graphics & Text | Print | Product List | Glossary On
Versions: 1 2 3 4 5 6 7 8 9 10 11 12 13 14 15 16 17 18 19 20 21 22 23 24 25 26 27 28 29 30 31 32 33 34 35 36 37 38 39 40 41 42 43 44 45 46 47 48 49 50
000
FPUS82 KCHS 251612
OPUCHS

TEST...KCHS/KSAV Gateway Observations...TEST
National Weather Service Charleston SC
1200 PM EDT FRI MAY 25 2018

NOTE: "fair" indicates few or no clouds below 12,000 feet with no
significant weather and/or obstructions to visibility.

SCZ050-WAZ558-NCZ071-TXZ119-213-PAZ071-DCZ001-FLZ074-172-MI076-
NYZ176-178-MAZ016-IL014-TNZ027-NJZ106-GAZ044-MD014-251700-

...Gateway Observations for Charleston International...

CITY           SKY/WX    TMP DP  RH WIND       PRES   REMARKS
Chas Airport   PTSUNNY   85  69  58 SE12      30.08F
Seattle        CLOUDY    55  45  68 NE5       30.06R
Charlotte      LGT RAIN  79  69  71 MISG      30.12F
Dallas DFW     MOSUNNY   87  69  54 SW13      29.96R HX  91
Dallas Love    MOSUNNY   87  71  58 SW8       29.97R HX  93
Philladelphia  FAIR      82  58  43 SW15      30.02F
Wash National  FAIR      82  63  52 S10       30.04F
Baltimore      FAIR      83  61  47 SW9       30.02F
Miami          LGT RAIN  78  74  87 E15G26    30.01F
Detroit        FAIR      82  54  37 W12       29.96F
Newark         PTSUNNY   84  52  33 SW13      29.97F
Laguardia      PTSUNNY   84  48  28 SW13      29.96F
J F K          FAIR      80  58  46 SW17      29.99F
Boston Logan   PTSUNNY   84  47  27 W23G29    29.85F
Ft. Lauderdale CLOUDY    78  77  96 E20       30.00F
Chicago O`Hare FAIR      84  59  42 SW10      29.91F
Chicago Midway FAIR      84  61  45 SW9       29.92F
Houston Bush   PTSUNNY   84  73  69 S5        29.98F HX  90
Houston Hobby  FAIR      85  73  67 W6        29.97F HX  91
Nashville      FAIR      87  65  47 W6        30.01F
Atlanta        PTSUNNY   77  68  73 E8        30.08F

$$

GAZ044-118-TXZ119-213-NCZ071-DCZ001-MDZ014-506-PAZ021-071-NJZ106-
NYZ176-178-MAZ106-OHZ011-021-055-MIZ076-KYZ091-ILZ014-INZ047-
MNZ060-ONZ431-251700-

...Gateway Observations for Savannah International...

CITY           SKY/WX    TMP DP  RH WIND       PRES   REMARKS
Savannah Arpt  PTSUNNY   83  70  64 S9        30.08
Atlanta        PTSUNNY   77  68  73 E8        30.08F
Charlotte      LGT RAIN  79  69  71 MISG      30.12F
Dallas DFW     MOSUNNY   87  69  54 SW13      29.96R HX  91
Houston Bush   PTSUNNY   84  73  69 S5        29.98F HX  90
Wash National  FAIR      82  63  52 S10       30.04F
Wash Dulles    FAIR      82  60  47 SW10      30.04F
Baltimore      FAIR      83  61  47 SW9       30.02F
Philadelphia   FAIR      82  58  43 SW15      30.02F
Newark         PTSUNNY   84  52  33 SW13      29.97F
Laguardia      PTSUNNY   84  48  28 SW13      29.96F
J F K          FAIR      80  58  46 SW17      29.99F
Boston         PTSUNNY   84  47  27 W23G29    29.85F
Pittsburg      FAIR      79  62  56 N3        30.02F
Akron          FAIR      82  55  39 W9        30.01F
Cleveland      FAIR      81  55  40 S6        30.01F
Cincinnati     FAIR      81  58  45 SW7       30.01F
Columbus       FAIR      80  58  45 MISG      30.00F
Detroit        FAIR      82  54  37 W12       29.96F
Chicago O`Hare FAIR      84  59  42 SW10      29.91F
Minneapolis    PTSUNNY   77  68  73 S9        29.79R
Indianapolis   FAIR      82  57  42 W8        29.98F
Toronto Canada PTSUNNY   82  54  36 W14G20    29.90F

$$




USA.gov is the U.S. government's official web portal to all federal, state and local government web resources and services.